Regional Weather Roundup
Issued by NWS

Home | Current Version | Previous Version | Graphics & Text | Print | Product List | Glossary On
Versions: 1 2 3 4 5 6 7 8 9 10 11 12 13 14 15 16 17 18 19 20 21 22 23 24 25 26 27 28 29 30 31 32 33 34 35 36 37 38 39 40 41 42 43 44 45 46 47 48 49 50
000
ASUS44 KMEG 222010
RWRTN
TENNESSEE HOURLY STATE WEATHER ROUNDUP
NATIONAL WEATHER SERVICE MEMPHIS TN
300 PM CDT SUN OCT 22 2017

TNZ002-004-019-021-049-052-054-088>092-222100-
WEST TENNESSEE

CITY           SKY/WX    TMP DP  RH WIND       PRES   REMARKS
MEMPHIS INTL   LGT RAIN  71  68  90 SW9       29.96F
NWS MEMPHIS      N/A     74 N/A N/A MISG        N/A
JACKSON        CLOUDY    75  67  76 S9G23     29.98F
DYERSBURG        N/A     71  66  84 S7        29.97F
SOMERVILLE     PTSUNNY   73  68  83 VRB5G13   29.95F
COVINGTON      CLOUDY    73  66  78 S14       29.96F
UNION CITY     CLOUDY    77  63  61 S13G20    29.95F
BOLIVAR        PTSUNNY   75  66  73 S13G23    29.97F
HUNTINGDON     CLOUDY    77  64  65 S12G20    29.97F
LEXINGTON      CLOUDY    75  64  69 SE9       30.00F
SELMER         PTSUNNY   70  68  94 S10       30.01F
SAVANNAH       CLOUDY    72  66  83 S8        30.01S HAZE
$$

TNZ008-025-027-028-033-062-065-066-222100-
NORTH MIDDLE TENNESSEE

CITY           SKY/WX    TMP DP  RH WIND       PRES   REMARKS
NASHVILLE      CLOUDY    78  59  51 S16G25    30.07F
PORTLAND       MOSUNNY   77  59  53 S12G18    30.06F
CLARKSVILLE    CLOUDY    77  60  55 S9        30.02F
SMYRNA         CLOUDY    77  61  57 S12       30.08F
COOKEVILLE     PTSUNNY   77  59  53 S16       30.12S
GALLATIN       PTSUNNY   79  59  50 S12G20    30.10F
CROSSVILLE     CLOUDY    73  57  57 S13G20    30.17F
$$

TNZ061-075-076-078-094-096-097-222100-
SOUTH MIDDLE TENNESSEE

CITY           SKY/WX    TMP DP  RH WIND       PRES   REMARKS
FAYETTEVILLE   CLOUDY    75  63  64 SE10      30.08F
TULLAHOMA      PTSUNNY   73  57  56 S10       30.11F
WINCHESTER     SUNNY     75  63  64 S12         N/A
COLUMBIA       PTSUNNY   75  63  64 SE9G15    30.04F
SHELBYVILLE    PTSUNNY   75  61  60 S12G18    30.09F
$$

TNZ017-018-042-046-047-222100-
NORTHEAST TENNESSEE

CITY           SKY/WX    TMP DP  RH WIND       PRES   REMARKS
TRI CITIES     PTSUNNY   77  50  38 S8        30.21S
ELIZABETHTON   SUNNY     75  50  41 E9        30.22S
$$

TNZ012-013-036-069-073-074-222100-
CENTRAL EAST TENNESSEE

CITY           SKY/WX    TMP DP  RH WIND       PRES   REMARKS
KNOXVILLE      CLOUDY    79  57  46 SE9G18    30.15F
OAK RIDGE      PTSUNNY   78  57  48 SE6       30.17
DOWNTOWN KNOXV SUNNY     81  55  41 SE3       30.16F
GATLINBURG     SUNNY     81  52  36 CALM      30.16F
MORRISTOWN     SUNNY     79  48  34 NW5       30.18S
JACKSBORO      PTSUNNY   75  55  50 S9G15     30.20F
$$

TNZ083-085-099-222100-
SOUTHEAST TENNESSEE

CITY           SKY/WX    TMP DP  RH WIND       PRES   REMARKS
CHATTANOOGA    PTSUNNY   78  61  55 SE14      30.14F
DAYTON         PTCLDY    79  63  57 S13G20    30.13S
$$

SKY/WX REPORTED AS FAIR MEANS FEW OR NO CLOUDS BELOW
12 THOUSAND FEET.





USA.gov is the U.S. government's official web portal to all federal, state and local government web resources and services.